Regional Weather Roundup
Issued by NWS

Home | Current Version | Previous Version | Text Only | Print | Product List | Glossary Off
Versions: 1 2 3 4 5 6 7 8 9 10 11 12 13 14 15 16 17 18 19 20 21 22 23 24 25 26 27 28 29 30 31 32 33 34 35 36 37 38 39 40 41 42 43 44 45 46 47 48 49 50

000
ASUS43 KBIS 022120
RWRND

NORTH DAKOTA REGIONAL WEATHER ROUNDUP
NATIONAL WEATHER SERVICE BISMARCK ND
400 PM CDT TUE SEP 02 2014

NOTE: "FAIR" INDICATES FEW OR NO CLOUDS BELOW 12,000 FEET WITH NO
SIGNIFICANT WEATHER AND/OR OBSTRUCTIONS TO VISIBILITY.


NDZ001>003-009>011-017-022200-
NORTHWEST NORTH DAKOTA

CITY           SKY/WX    TMP DP  RH WIND       PRES   REMARKS
WILLISTON      MOSUNNY   76  42  29 W7G18     29.76F
MINOT          SUNNY     76  46  34 W17G25    29.72S
MINOT AFB      SUNNY     75  49  39 NW17G23   29.71F
$$

NDZ018>021-031>035-040>046-022200-
SOUTHWEST NORTH DAKOTA

CITY           SKY/WX    TMP DP  RH WIND       PRES   REMARKS
BISMARCK       CLOUDY    79  48  33 W14       29.79S
DICKINSON      PTSUNNY   74  43  32 W14G26    29.81F
GARRISON         N/A     73  47  39 W13G22    29.76S
HETTINGER ARPT MOSUNNY   74  46  36 W13G22    29.84F
$$

NDZ004>008-012>016-024-026-027-054-022200-
NORTHEAST NORTH DAKOTA

CITY           SKY/WX    TMP DP  RH WIND       PRES   REMARKS
GRAND FORKS    MOSUNNY   74  56  53 SW12      29.70F
GRND FRKS AFB  MOSUNNY   74  58  58 S12       29.71F
DEVILS LAKE    SUNNY     77  50  38 W22G30    29.69S
$$

NDZ022-023-025-028>030-036>039-047>053-022200-
SOUTHEAST NORTH DAKOTA

CITY           SKY/WX    TMP DP  RH WIND       PRES   REMARKS
FARGO          SUNNY     79  53  40 SW18G29   29.75F
JAMESTOWN      PTSUNNY   75  50  41 W15       29.76S
$$




USA.gov is the U.S. government's official web portal to all federal, state and local government web resources and services.